• In Moldova, Republic
  • List of Countries
  • For 7 days
  • Water Temperature
  • Satellite Maps
  • Weather Map
  • Weather Widgets
  • user-avatar
    Login

    Hourly Weather Annaba

    Today, 26 September, Wednesday

    Time Temperature Precipitation Wind Pressure Humidity
    00:00 +24°C° 0 mm 2 mps 765 mmHg 78%
    01:00 +24°C° 0 mm 2 mps 765 mmHg 80%
    02:00 +23°C° 0.1 mm 2 mps 765 mmHg 81%
    03:00 +22°C° 0.1 mm 3 mps 765 mmHg 83%
    04:00 +22°C° 0.1 mm 3 mps 765 mmHg 84%
    05:00 +22°C° 0.2 mm 3 mps 765 mmHg 84%
    06:00 +22°C° 0.2 mm 3 mps 766 mmHg 84%
    07:00 +22°C° 0.2 mm 3 mps 766 mmHg 84%
    08:00 +23°C° 0.4 mm 4 mps 766 mmHg 78%
    09:00 +25°C° 0.4 mm 5 mps 766 mmHg 72%
    10:00 +27°C° 0.4 mm 6 mps 767 mmHg 66%
    11:00 +27°C° 0.3 mm 6 mps 767 mmHg 64%
    12:00 +28°C° 0.3 mm 7 mps 767 mmHg 63%
    13:00 +28°C° 0.3 mm 8 mps 767 mmHg 61%
    14:00 +28°C° 0 mm 8 mps 767 mmHg 60%
    15:00 +28°C° 0 mm 8 mps 767 mmHg 59%
    16:00 +27°C° 0 mm 9 mps 767 mmHg 58%
    17:00 +26°C° 0 mm 8 mps 767 mmHg 59%
    18:00 +24°C° 0 mm 8 mps 768 mmHg 60%
    19:00 +23°C° 0 mm 8 mps 768 mmHg 62%
    20:00 +23°C° 0 mm 7 mps 768 mmHg 63%
    21:00 +22°C° 0 mm 7 mps 769 mmHg 65%
    22:00 +21°C° 0 mm 6 mps 769 mmHg 66%
    23:00 +21°C° 0 mm 6 mps 769 mmHg 68%

    Tomorrow, 27 September, Thursday

    Time Temperature Precipitation Wind Pressure Humidity
    00:00 +20°C° 0 mm 5 mps 769 mmHg 69%
    01:00 +20°C° 0 mm 5 mps 769 mmHg 70%
    02:00 +20°C° 0 mm 4 mps 769 mmHg 72%
    03:00 +19°C° 0 mm 4 mps 769 mmHg 73%
    04:00 +19°C° 0 mm 4 mps 768 mmHg 74%
    05:00 +19°C° 0 mm 3 mps 768 mmHg 74%
    06:00 +19°C° 0 mm 3 mps 768 mmHg 73%
    07:00 +19°C° 0 mm 3 mps 769 mmHg 73%
    08:00 +20°C° 0 mm 3 mps 769 mmHg 66%
    09:00 +22°C° 0 mm 3 mps 769 mmHg 59%
    10:00 +25°C° 0 mm 3 mps 769 mmHg 52%
    11:00 +26°C° 0 mm 4 mps 769 mmHg 48%
    12:00 +27°C° 0 mm 4 mps 768 mmHg 44%
    13:00 +28°C° 0 mm 4 mps 768 mmHg 40%
    14:00 +28°C° 0 mm 5 mps 767 mmHg 42%
    15:00 +28°C° 0 mm 5 mps 766 mmHg 43%
    16:00 +28°C° 0 mm 5 mps 766 mmHg 45%
    17:00 +26°C° 0 mm 5 mps 766 mmHg 50%
    18:00 +25°C° 0 mm 4 mps 766 mmHg 56%
    19:00 +22°C° 0 mm 4 mps 766 mmHg 61%
    20:00 +22°C° 0 mm 3 mps 766 mmHg 63%
    21:00 +21°C° 0 mm 3 mps 766 mmHg 65%
    22:00 +21°C° 0 mm 2 mps 766 mmHg 67%
    23:00 +20°C° 0 mm 2 mps 766 mmHg 69%

    Day after tomorrow, 28 September, Friday

    Time Temperature Precipitation Wind Pressure Humidity
    00:00 +20°C° 0 mm 2 mps 765 mmHg 70%
    01:00 +21°C° 0 mm 1 mps 765 mmHg 71%
    02:00 +21°C° 0 mm 1 mps 764 mmHg 72%
    03:00 +20°C° 0 mm 1 mps 764 mmHg 73%
    04:00 +20°C° 0 mm 1 mps 763 mmHg 74%
    05:00 +19°C° 0 mm 2 mps 763 mmHg 73%
    06:00 +19°C° 0 mm 2 mps 763 mmHg 73%
    07:00 +19°C° 0 mm 2 mps 763 mmHg 72%
    08:00 +21°C° 0 mm 2 mps 763 mmHg 62%
    09:00 +24°C° 0 mm 2 mps 763 mmHg 52%
    10:00 +26°C° 0 mm 2 mps 763 mmHg 41%
    11:00 +27°C° 0 mm 2 mps 763 mmHg 39%
    12:00 +28°C° 0 mm 3 mps 762 mmHg 37%
    13:00 +29°C° 0 mm 3 mps 762 mmHg 35%
    14:00 +28°C° 0 mm 3 mps 761 mmHg 38%
    15:00 +28°C° 0 mm 4 mps 761 mmHg 41%
    16:00 +28°C° 0 mm 4 mps 760 mmHg 44%
    17:00 +26°C° 0 mm 3 mps 760 mmHg 50%
    18:00 +25°C° 0 mm 3 mps 760 mmHg 56%
    19:00 +24°C° 0 mm 2 mps 761 mmHg 62%
    20:00 +23°C° 0 mm 2 mps 761 mmHg 65%
    21:00 +23°C° 0 mm 2 mps 761 mmHg 68%
    22:00 +22°C° 0 mm 1 mps 761 mmHg 70%
    23:00 +21°C° 0 mm 2 mps 761 mmHg 71%

    29 September, Saturday

    Time Temperature Precipitation Wind Pressure Humidity
    00:00 +20°C° 0 mm 2 mps 761 mmHg 72%
    01:00 +20°C° 0 mm 2 mps 761 mmHg 72%
    02:00 +20°C° 0 mm 2 mps 761 mmHg 72%
    03:00 +20°C° 0 mm 2 mps 760 mmHg 71%
    04:00 +19°C° 0 mm 2 mps 760 mmHg 70%
    05:00 +19°C° 0 mm 2 mps 760 mmHg 68%
    06:00 +19°C° 0 mm 2 mps 760 mmHg 67%
    07:00 +19°C° 0 mm 2 mps 760 mmHg 65%
    08:00 +21°C° 0 mm 2 mps 760 mmHg 57%
    09:00 +25°C° 0 mm 2 mps 761 mmHg 48%
    10:00 +27°C° 0 mm 2 mps 761 mmHg 40%
    11:00 +28°C° 0 mm 3 mps 760 mmHg 36%
    12:00 +29°C° 0 mm 3 mps 760 mmHg 33%
    13:00 +30°C° 0 mm 3 mps 760 mmHg 29%
    14:00 +29°C° 0 mm 3 mps 760 mmHg 31%
    15:00 +29°C° 0 mm 4 mps 759 mmHg 33%
    16:00 +29°C° 0 mm 4 mps 759 mmHg 35%
    17:00 +27°C° 0 mm 3 mps 759 mmHg 42%
    18:00 +26°C° 0 mm 3 mps 760 mmHg 49%
    19:00 +24°C° 0 mm 2 mps 760 mmHg 56%
    20:00 +24°C° 0 mm 2 mps 760 mmHg 60%
    21:00 +23°C° 0 mm 2 mps 761 mmHg 63%
    22:00 +21°C° 0 mm 2 mps 761 mmHg 66%
    23:00 +21°C° 0 mm 2 mps 761 mmHg 66%

    30 September, Sunday

    Time Temperature Precipitation Wind Pressure Humidity
    00:00 +21°C° 0 mm 2 mps 761 mmHg 65%
    01:00 +21°C° 0 mm 3 mps 760 mmHg 64%
    02:00 +20°C° 0 mm 3 mps 760 mmHg 61%
    03:00 +20°C° 0 mm 3 mps 760 mmHg 58%
    04:00 +20°C° 0 mm 3 mps 760 mmHg 55%
    05:00 +20°C° 0 mm 3 mps 760 mmHg 52%
    06:00 +20°C° 0 mm 3 mps 760 mmHg 49%
    07:00 +20°C° 0 mm 3 mps 760 mmHg 47%
    08:00 +24°C° 0 mm 3 mps 760 mmHg 42%
    09:00 +26°C° 0 mm 3 mps 760 mmHg 37%
    10:00 +28°C° 0 mm 3 mps 760 mmHg 32%
    11:00 +29°C° 0 mm 3 mps 760 mmHg 32%
    12:00 +30°C° 0 mm 4 mps 760 mmHg 33%
    13:00 +32°C° 0 mm 4 mps 760 mmHg 33%
    14:00 +32°C° 0 mm 4 mps 759 mmHg 37%
    15:00 +30°C° 0 mm 5 mps 759 mmHg 41%
    16:00 +30°C° 0 mm 5 mps 759 mmHg 45%
    17:00 +28°C° 0 mm 4 mps 759 mmHg 53%
    18:00 +27°C° 0 mm 3 mps 760 mmHg 61%
    19:00 +25°C° 0 mm 2 mps 760 mmHg 69%
    20:00 +24°C° 0 mm 2 mps 760 mmHg 73%
    21:00 +24°C° 0 mm 2 mps 760 mmHg 76%
    22:00 +23°C° 0 mm 1 mps 760 mmHg 79%
    23:00 +23°C° 0 mm 1 mps 760 mmHg 80%

    1 October, Monday

    Time Temperature Precipitation Wind Pressure Humidity
    00:00 +23°C° 0 mm 1 mps 760 mmHg 80%
    01:00 +21°C° 0 mm 2 mps 760 mmHg 81%
    02:00 +21°C° 0 mm 2 mps 760 mmHg 80%
    03:00 +21°C° 0 mm 2 mps 759 mmHg 79%
    04:00 +21°C° 0 mm 2 mps 759 mmHg 78%
    05:00 +21°C° 0 mm 2 mps 759 mmHg 75%
    06:00 +21°C° 0 mm 2 mps 759 mmHg 73%
    07:00 +21°C° 0 mm 2 mps 759 mmHg 70%
    08:00 +24°C° 0 mm 1 mps 759 mmHg 60%
    09:00 +27°C° 0 mm 1 mps 759 mmHg 50%
    10:00 +27°C° 0 mm 0 mps 759 mmHg 39%
    11:00 +30°C° 0 mm 1 mps 759 mmHg 37%
    12:00 +31°C° 0 mm 2 mps 759 mmHg 34%
    13:00 +33°C° 0 mm 3 mps 758 mmHg 32%
    14:00 +31°C° 0 mm 3 mps 758 mmHg 34%
    15:00 +31°C° 0 mm 3 mps 758 mmHg 36%
    16:00 +31°C° 0 mm 3 mps 757 mmHg 38%
    17:00 +29°C° 0 mm 3 mps 758 mmHg 46%
    18:00 +27°C° 0 mm 2 mps 758 mmHg 53%
    19:00 +26°C° 0 mm 2 mps 758 mmHg 61%
    20:00 +25°C° 0 mm 1 mps 758 mmHg 64%
    21:00 +24°C° 0 mm 1 mps 759 mmHg 67%
    22:00 +22°C° 0 mm 0 mps 759 mmHg 70%
    23:00 +24°C° 0 mm 1 mps 759 mmHg 70%
    Show more